Bookmark and Share
Track history (hours):
 

Westgard

Last reported at 2014-Apr-17 04:18 UTC. Time now 2014-Apr-17 06:47 UTC.
Position N 54°17' E 005°12'.

Length 89 m; draft 4.5 m.

Type: Ship. MMSI: 246457000.

NotesDate/timePositionNaut miles runAvg speedWind from/ knotsBaromVisibWave heightAir tempDewpointWater temp
2014-Apr-17 04:18N 54°17' E 005°12'911.6
2014-Apr-17 03:31N 54°10' E 005°03'1111.5
2014-Apr-17 02:32N 53°59' E 004°56'1211.9
2014-Apr-17 01:30N 53°47' E 004°53'1111.8
2014-Apr-17 00:33N 53°36' E 004°49'1111.3
2014-Apr-16 23:33N 53°26' E 004°41'1111.2
2014-Apr-16 22:33N 53°15' E 004°34'1111.1
2014-Apr-16 21:33N 53°05' E 004°26'1111.4
2014-Apr-16 20:33N 52°55' E 004°17'1111.4
2014-Apr-16 19:33N 52°46' E 004°06'1211.9
2014-Apr-16 18:33N 52°37' E 003°54'1312.4
2014-Apr-16 17:33N 52°28' E 003°39'6713.3
2014-Apr-16 12:32N 51°38' E 002°27'1212.5
2014-Apr-16 11:33N 51°29' E 002°15'1411.4
2014-Apr-16 10:20N 51°16' E 002°05'10 9.8
2014-Apr-16 09:21N 51°09' E 001°54'7 8.9
2014-Apr-16 08:33N 51°05' E 001°45'47 9.3
2014-Apr-16 03:33N 50°31' E 000°54'1010.4
2014-Apr-16 02:33N 50°28' E 000°38'7011.7
2014-Apr-15 20:33N 50°17' W 001°10'  
2014-Apr-12 14:22N 47°14' W 003°36'  
2014-Apr-10 09:09N 46°09' W 001°37'610.1
2014-Apr-10 08:34N 46°13' W 001°44'1010.3
2014-Apr-10 07:34N 46°19' W 001°56'1010.0
2014-Apr-10 06:34N 46°25' W 002°07'1610.8
2014-Apr-10 05:05N 46°34' W 002°26'810.8
2014-Apr-10 04:19N 46°39' W 002°35'223 6.2
2014-Apr-08 16:30N 50°17' W 001°20'8 8.5
2014-Apr-08 15:31N 50°19' W 001°07'8 8.0
2014-Apr-08 14:31N 50°22' W 000°55'48 8.9
2014-Apr-08 09:12N 50°35' E 000°16'6 9.9
2014-Apr-08 08:33N 50°37' E 000°26'9 9.4
2014-Apr-08 07:33N 50°41' E 000°39'9 9.2
2014-Apr-08 06:34N 50°46' E 000°51'27 9.1
2014-Apr-08 03:34N 51°03' E 001°25'1010.1
2014-Apr-08 02:33N 51°10' E 001°37'1110.8
2014-Apr-08 01:33N 51°18' E 001°49'1111.4
2014-Apr-08 00:34N 51°27' E 001°59'1111.2
2014-Apr-07 23:33N 51°36' E 002°11'14910.7
2014-Apr-07 09:33N 53°30' E 004°50'10 9.8
2014-Apr-07 08:33N 53°34' E 005°05'1111.0
2014-Apr-07 07:33N 53°37' E 005°23'1211.8
2014-Apr-07 06:33N 53°41' E 005°41'  

Dump ship's entire track history

sailing weather and tide predictions

Westgard — PDBQ — position and weather